Regional Weather Roundup
Issued by NWS

Home | Current Version | Previous Version | Graphics & Text | Print | Product List | Glossary Off
Versions: 1 2 3 4 5 6 7 8 9 10 11 12 13 14 15 16 17 18 19 20 21 22 23 24 25 26 27 28 29 30 31 32 33 34 35 36 37 38 39 40 41 42 43 44 45 46 47 48 49 50

000
ASUS43 KTOP 262008
RWRKS

WEATHER ROUNDUP FOR KANSAS
NATIONAL WEATHER SERVICE GOODLAND KS
300 PM CDT FRI MAY 26 2017

NOTE:  "FAIR" INDICATES FEW OR NO CLOUDS BELOW 12,000 FEET WITH NO
SIGNIFICANT WEATHER AND/OR OBSTRUCTIONS TO VISIBILITY.

KSZ001>006-013>018-027>032-041>047-262100-
NORTHWEST KANSAS

CITY           SKY/WX    TMP DP  RH WIND       PRES   REMARKS
GOODLAND       SUNNY     70  50  49 E9        29.90F
HAYS           SUNNY     76  57  51 NE9       29.86F
HILL CITY      SUNNY     77  51  40 NE8       29.88F
RUSSELL        SUNNY     77  55  46 NE9       29.84S
$$

KSZ061>065-074>080-084>089-262100-
SOUTHWEST KANSAS

CITY           SKY/WX    TMP DP  RH WIND       PRES   REMARKS
DODGE CITY     SUNNY     79  57  46 NE14G20   29.88R
ELKHART          N/A     79  47  32 E12         N/A
GARDEN CITY    SUNNY     78  51  38 E13       29.88F
GREAT BEND     SUNNY     77  59  53 NE13      29.85S
LIBERAL        SUNNY     82  51  34 E12       29.88F
PRATT          SUNNY     78  58  49 N12G20    29.84S
$$

KSZ066>073-081>083-090>101-262100-
SOUTHEAST KANSAS

CITY           SKY/WX    TMP DP  RH WIND       PRES   REMARKS
CHANUTE        MOSUNNY   86  65  49 NE6       29.76S
COFFEYVILLE    PTSUNNY   85  69  58 E5        29.74S
HUTCHINSON     SUNNY     82  63  52 VRB5G16   29.80F
MEDICINE LODGE   N/A     85  58  39 NE9       29.79F
NEWTON         MOSUNNY   81  65  58 N8        29.81S
PARSONS        CLOUDY    84  65  52 CALM      29.76R
WICHITA INTL   MOSUNNY   85  58  39 N10       29.78S
WICHITA JABRA  SUNNY     85  60  42 VRB6      29.78S
WICHITA MCCONL SUNNY     85  59  41 NE8       29.78F
WINFIELD       SUNNY     86  63  45 NE10G16   29.78S
$$

KSZ007>012-019>026-033>040-048>060-102>105-262100-
NORTHEAST KANSAS

CITY           SKY/WX    TMP DP  RH WIND       PRES   REMARKS
CONCORDIA      SUNNY     79  58  48 N9        29.82S
EMPORIA        MOSUNNY   82  64  54 N7        29.78R
LAWRENCE       PTSUNNY   85  66  53 N8        29.76R
MANHATTAN      MOSUNNY   83  64  52 N6        29.78S
MARYSVILLE     SUNNY     81  59  47 N8G18     29.80S
OLATHE IND     MOSUNNY   81  64  56 NE5       29.77R
OLATHE EXE     MOSUNNY   81  64  56 N6        29.76S
SALINA         SUNNY     83  63  50 N10       29.81S
TOPEKA BILLARD MOSUNNY   84  66  54 N6        29.76S
TOPEKA FORBES  MOSUNNY   85  66  53 N9        29.77R
$$




USA.gov is the U.S. government's official web portal to all federal, state and local government web resources and services.